{"data":{"norad_id":55155,"intl_designator":"2023-004R","name":"ONEWEB-0599","alt_names":[],"object_type":"PAYLOAD","status":"ACTIVE","operator":null,"country":"UK","launch_date":"2023-01-10","launch_site_code":"AFETR","launch_vehicle":null,"mission":null,"orbit_class":"UNKNOWN","rcs_meters":null,"size_class":null,"mass_kg":null,"dimensions":null,"purposes":["comms"],"wikipedia_slug":null,"has_3d_model":false,"image_url":null,"decayed_at":null,"tle_current":{"epoch":"2026-09-20T00:30:18.664704Z","epoch_age_seconds":63378,"freshness":"FRESH","line1":"1 55155U 23004R   26263.02104936 -.00000024  00000+0 -95380-4 0  9990","line2":"2 55155  87.9201 347.0324 0001878  92.8423 267.2923 13.17650584179979","mean_motion":13.17650584,"eccentricity":0.0001878,"inclination_deg":87.9201,"raan_deg":347.0324,"arg_perigee_deg":92.8423,"mean_anomaly_deg":267.2923,"bstar":-9.538e-5,"rev_number":17997,"period_min":109.28542190818,"perigee_km":1192.2851992424,"apogee_km":1195.1291839208,"semimajor_km":7571.8441915816,"source":"CELESTRAK","updated_at":"2026-09-20T09:00:44.753145Z"}}}